Tiempo cada hora Mursk

Hoy, 22 Octubre, Jueves

Tiempo Temperatura Precipitaciones Viento Presión Humedad
00:00 +10°C° 0 mm 5 mps 753 mmHg 74%
01:00 +10°C° 0 mm 6 mps 753 mmHg 73%
02:00 +10°C° 0 mm 6 mps 752 mmHg 72%
03:00 +10°C° 0 mm 5 mps 752 mmHg 71%
04:00 +10°C° 0 mm 5 mps 752 mmHg 70%
05:00 +10°C° 0 mm 5 mps 753 mmHg 70%
06:00 +11°C° 0 mm 6 mps 753 mmHg 70%
07:00 +11°C° 0 mm 6 mps 753 mmHg 69%
08:00 +13°C° 0 mm 6 mps 754 mmHg 67%
09:00 +15°C° 0 mm 7 mps 754 mmHg 65%
10:00 +16°C° 0 mm 7 mps 755 mmHg 62%
11:00 +17°C° 0 mm 7 mps 755 mmHg 62%
12:00 +19°C° 0 mm 6 mps 755 mmHg 62%
13:00 +19°C° 0 mm 6 mps 755 mmHg 62%
14:00 +17°C° 0 mm 5 mps 755 mmHg 66%
15:00 +18°C° 0 mm 4 mps 755 mmHg 70%
16:00 +17°C° 0 mm 3 mps 755 mmHg 74%
17:00 +16°C° 0 mm 3 mps 755 mmHg 77%
18:00 +16°C° 0 mm 3 mps 755 mmHg 79%
19:00 +14°C° 0 mm 3 mps 755 mmHg 81%
20:00 +14°C° 0 mm 3 mps 755 mmHg 82%
21:00 +13°C° 0 mm 3 mps 755 mmHg 83%
22:00 +13°C° 0 mm 3 mps 755 mmHg 84%
23:00 +13°C° 0 mm 3 mps 755 mmHg 84%

Mañana, 23 Octubre, Viernes

Tiempo Temperatura Precipitaciones Viento Presión Humedad
00:00 +13°C° 0 mm 3 mps 755 mmHg 83%
01:00 +13°C° 0 mm 4 mps 755 mmHg 83%
02:00 +13°C° 0 mm 4 mps 754 mmHg 82%
03:00 +13°C° 0 mm 4 mps 754 mmHg 81%
04:00 +13°C° 0 mm 4 mps 754 mmHg 80%
05:00 +13°C° 0 mm 4 mps 753 mmHg 81%
06:00 +13°C° 0 mm 4 mps 753 mmHg 82%
07:00 +13°C° 0 mm 4 mps 753 mmHg 84%
08:00 +14°C° 0 mm 4 mps 753 mmHg 82%
09:00 +15°C° 0 mm 5 mps 753 mmHg 79%
10:00 +16°C° 0 mm 5 mps 753 mmHg 77%
11:00 +17°C° 0 mm 4 mps 753 mmHg 76%
12:00 +18°C° 0 mm 4 mps 753 mmHg 74%
13:00 +18°C° 0 mm 4 mps 753 mmHg 73%
14:00 +17°C° 0 mm 3 mps 753 mmHg 76%
15:00 +17°C° 0 mm 2 mps 753 mmHg 79%
16:00 +16°C° 0 mm 1 mps 753 mmHg 82%
17:00 +16°C° 0 mm 1 mps 753 mmHg 84%
18:00 +16°C° 0 mm 1 mps 753 mmHg 86%
19:00 +15°C° 0 mm 1 mps 753 mmHg 88%
20:00 +15°C° 0.6 mm 1 mps 753 mmHg 90%
21:00 +15°C° 0.6 mm 1 mps 753 mmHg 93%
22:00 +15°C° 0.6 mm 1 mps 753 mmHg 96%
23:00 +14°C° 1.3 mm 1 mps 753 mmHg 96%

Pasado mañana, 24 Octubre, Sábado

Tiempo Temperatura Precipitaciones Viento Presión Humedad
00:00 +14°C° 1.3 mm 1 mps 753 mmHg 97%
01:00 +14°C° 1.3 mm 1 mps 752 mmHg 97%
02:00 +14°C° 2 mm 1 mps 752 mmHg 97%
03:00 +14°C° 2 mm 1 mps 752 mmHg 97%
04:00 +14°C° 2 mm 1 mps 752 mmHg 97%
05:00 +14°C° 0.8 mm 1 mps 752 mmHg 97%
06:00 +14°C° 0.8 mm 1 mps 752 mmHg 96%
07:00 +14°C° 0.8 mm 1 mps 752 mmHg 95%
08:00 +14°C° 0.2 mm 2 mps 752 mmHg 93%
09:00 +14°C° 0.2 mm 2 mps 753 mmHg 91%
10:00 +15°C° 0.2 mm 2 mps 753 mmHg 88%
11:00 +16°C° 0.1 mm 3 mps 753 mmHg 82%
12:00 +15°C° 0.1 mm 4 mps 754 mmHg 75%
13:00 +16°C° 0.1 mm 6 mps 754 mmHg 68%
14:00 +16°C° 0 mm 5 mps 754 mmHg 71%
15:00 +15°C° 0 mm 5 mps 755 mmHg 74%
16:00 +14°C° 0 mm 4 mps 755 mmHg 78%
17:00 +13°C° 0 mm 4 mps 755 mmHg 81%
18:00 +12°C° 0 mm 3 mps 756 mmHg 84%
19:00 +11°C° 0 mm 3 mps 756 mmHg 87%
20:00 +11°C° 0 mm 3 mps 756 mmHg 87%
21:00 +12°C° 0 mm 2 mps 757 mmHg 87%
22:00 +12°C° 0 mm 2 mps 757 mmHg 87%
23:00 +12°C° 0 mm 2 mps 757 mmHg 86%

, 25 Octubre, Domingo

Tiempo Temperatura Precipitaciones Viento Presión Humedad
00:00 +11°C° 0 mm 3 mps 757 mmHg 86%
01:00 +11°C° 0 mm 3 mps 757 mmHg 86%
02:00 +11°C° 0 mm 3 mps 757 mmHg 87%
03:00 +11°C° 0 mm 3 mps 757 mmHg 88%
04:00 +12°C° 0 mm 2 mps 757 mmHg 88%
05:00 +10°C° 0 mm 2 mps 757 mmHg 89%
06:00 +10°C° 0 mm 2 mps 757 mmHg 90%
07:00 +9°C° 0 mm 2 mps 757 mmHg 91%
08:00 +11°C° 0 mm 3 mps 757 mmHg 86%
09:00 +12°C° 0 mm 3 mps 757 mmHg 81%
10:00 +13°C° 0 mm 3 mps 757 mmHg 76%
11:00 +14°C° 0 mm 3 mps 757 mmHg 72%
12:00 +16°C° 0 mm 3 mps 757 mmHg 68%
13:00 +17°C° 0 mm 3 mps 756 mmHg 64%
14:00 +16°C° 0 mm 3 mps 756 mmHg 68%
15:00 +16°C° 0 mm 3 mps 756 mmHg 73%
16:00 +14°C° 0 mm 3 mps 756 mmHg 77%
17:00 +13°C° 0 mm 3 mps 756 mmHg 80%
18:00 +13°C° 0 mm 3 mps 756 mmHg 83%
19:00 +12°C° 0 mm 3 mps 756 mmHg 86%
20:00 +12°C° 0 mm 4 mps 756 mmHg 86%
21:00 +11°C° 0 mm 4 mps 756 mmHg 86%
22:00 +11°C° 0 mm 4 mps 756 mmHg 87%
23:00 +11°C° 0 mm 4 mps 755 mmHg 88%

25 Octubre, Domingo

Tiempo Temperatura Precipitaciones Viento Presión Humedad
00:00 +11°C° 0 mm 3 mps 757 mmHg 86%
01:00 +11°C° 0 mm 3 mps 757 mmHg 86%
02:00 +11°C° 0 mm 3 mps 757 mmHg 87%
03:00 +11°C° 0 mm 3 mps 757 mmHg 88%
04:00 +12°C° 0 mm 2 mps 757 mmHg 88%
05:00 +10°C° 0 mm 2 mps 757 mmHg 89%
06:00 +10°C° 0 mm 2 mps 757 mmHg 90%
07:00 +9°C° 0 mm 2 mps 757 mmHg 91%
08:00 +11°C° 0 mm 3 mps 757 mmHg 86%
09:00 +12°C° 0 mm 3 mps 757 mmHg 81%
10:00 +13°C° 0 mm 3 mps 757 mmHg 76%
11:00 +14°C° 0 mm 3 mps 757 mmHg 72%
12:00 +16°C° 0 mm 3 mps 757 mmHg 68%
13:00 +17°C° 0 mm 3 mps 756 mmHg 64%
14:00 +16°C° 0 mm 3 mps 756 mmHg 68%
15:00 +16°C° 0 mm 3 mps 756 mmHg 73%
16:00 +14°C° 0 mm 3 mps 756 mmHg 77%
17:00 +13°C° 0 mm 3 mps 756 mmHg 80%
18:00 +13°C° 0 mm 3 mps 756 mmHg 83%
19:00 +12°C° 0 mm 3 mps 756 mmHg 86%
20:00 +12°C° 0 mm 4 mps 756 mmHg 86%
21:00 +11°C° 0 mm 4 mps 756 mmHg 86%
22:00 +11°C° 0 mm 4 mps 756 mmHg 87%
23:00 +11°C° 0 mm 4 mps 755 mmHg 88%

26 Octubre, Lunes

Tiempo Temperatura Precipitaciones Viento Presión Humedad
00:00 +10°C° 0 mm 4 mps 755 mmHg 88%
01:00 +10°C° 0 mm 4 mps 755 mmHg 89%
02:00 +8°C° 0 mm 4 mps 755 mmHg 90%
03:00 +8°C° 0 mm 4 mps 754 mmHg 91%
04:00 +8°C° 0 mm 4 mps 754 mmHg 92%
05:00 +8°C° 0 mm 4 mps 754 mmHg 92%
06:00 +8°C° 0 mm 4 mps 753 mmHg 93%
07:00 +7°C° 0 mm 4 mps 753 mmHg 94%
08:00 +10°C° 0 mm 4 mps 753 mmHg 89%
09:00 +11°C° 0 mm 4 mps 753 mmHg 85%
10:00 +12°C° 0 mm 4 mps 752 mmHg 81%
11:00 +13°C° 0 mm 5 mps 752 mmHg 77%
12:00 +14°C° 0 mm 5 mps 752 mmHg 74%
13:00 +15°C° 0 mm 6 mps 751 mmHg 71%
14:00 +15°C° 0 mm 5 mps 751 mmHg 74%
15:00 +14°C° 0 mm 5 mps 751 mmHg 76%
16:00 +13°C° 0 mm 5 mps 750 mmHg 78%
17:00 +13°C° 0 mm 5 mps 750 mmHg 81%
18:00 +13°C° 0 mm 5 mps 750 mmHg 83%
19:00 +12°C° 0 mm 5 mps 750 mmHg 85%
20:00 +12°C° 0 mm 5 mps 750 mmHg 86%
21:00 +12°C° 0 mm 4 mps 750 mmHg 87%
22:00 +11°C° 0 mm 4 mps 750 mmHg 87%
23:00 +11°C° 0 mm 4 mps 750 mmHg 89%

27 Octubre, Martes

Tiempo Temperatura Precipitaciones Viento Presión Humedad
00:00 +11°C° 0 mm 3 mps 750 mmHg 91%
01:00 +10°C° 0 mm 3 mps 750 mmHg 93%
02:00 +10°C° 0 mm 3 mps 750 mmHg 90%
03:00 +11°C° 0 mm 3 mps 750 mmHg 88%
04:00 +11°C° 0 mm 4 mps 750 mmHg 85%
05:00 +11°C° 0 mm 4 mps 750 mmHg 85%
06:00 +11°C° 0 mm 4 mps 750 mmHg 86%
07:00 +11°C° 0 mm 4 mps 751 mmHg 86%
08:00 +12°C° 0 mm 4 mps 751 mmHg 81%
09:00 +13°C° 0 mm 4 mps 751 mmHg 77%
10:00 +15°C° 0 mm 4 mps 751 mmHg 72%
11:00 +15°C° 0 mm 4 mps 751 mmHg 70%
12:00 +17°C° 0 mm 4 mps 752 mmHg 68%
13:00 +18°C° 0 mm 4 mps 752 mmHg 65%
14:00 +17°C° 0 mm 3 mps 752 mmHg 69%
15:00 +16°C° 0 mm 2 mps 752 mmHg 73%
16:00 +16°C° 0 mm 2 mps 752 mmHg 77%
17:00 +15°C° 0 mm 1 mps 752 mmHg 80%
18:00 +14°C° 0 mm 1 mps 753 mmHg 82%
19:00 +13°C° 0 mm 1 mps 753 mmHg 85%
20:00 +13°C° 0 mm 1 mps 753 mmHg 86%
21:00 +13°C° 0 mm 1 mps 753 mmHg 86%
22:00 +13°C° 0 mm 1 mps 754 mmHg 87%
23:00 +13°C° 0 mm 1 mps 754 mmHg 87%
Mostrar más

Necesitamos Su Consentimiento

Meteoprog y nuestros Proveedores de Servicios pueden almacenar y acceder a sus datos personales como cookies, identificadores de dispositivo u otras tecnologías similares de su dispositivo y procesar dichos datos para personalizar contenido y anuncios, además de ofrecer funciones de redes sociales y analizar el tráfico.

  • Almacenar y/o acceder a información en su dispositivo

    Se puede almacenar o acceder a cookies, identificadores de dispositivo u otra información de su dispositivo para los fines anteriormente indicados.

  • Anuncios y contenido personalizados, medición de anuncios y contenido, percepciones del público, y desarrollo de productos

    Los anuncios y el contenido pueden personalizarse en base a su perfil. Se pueden añadir más datos para personalizar mejor los anuncios y contenidos. Se puede medir el rendimiento de los anuncios y contenidos. Se puede obtener la percepción sobre el público que ha visto los anuncios y contenidos. Dichos datos pueden usarse para desarrollar o mejorar la experiencia del usuario, sistemas y software.

Al hacer clic en ‘Estoy De Acuerdo’ usted permitirá el uso de las cookies, identificadores de dispositivo, balizas web u otras tecnologías similares indicadas. Su configuración puede cambiarse desde el navegador de su dispositivo.

Para ciertos fines, los intereses legítimos pueden ser considerados por encima del consentimiento. Puede leer más sobre ello en nuestra Política de Privacidad y Cookies.